Regional Weather Roundup
Issued by NWS

Home | Current Version | Previous Version | Graphics & Text | Print | Product List | Glossary On
Versions: 1 2 3 4 5 6 7 8 9 10 11 12 13 14 15 16 17 18 19 20 21 22 23 24 25 26 27 28 29 30 31 32 33 34 35 36 37 38 39 40 41 42 43 44 45 46 47 48 49 50
000
ASUS45 KTFX 301210
RWRMT
MONTANA REGIONAL WEATHER ROUNDUP
NATIONAL WEATHER SERVICE GREAT FALLS MT
600 AM MDT SUN AUG 30 2015

NOTE: "FAIR" INDICATES FEW OR NO CLOUDS BELOW 12000 FEET WITH NO
SIGNIFICANT WEATHER AND/OR OBSTRUCTIONS TO VISIBILITY.

MTZ001>007-043-301300-
WEST OF THE DIVIDE

CITY           SKY/WX    TMP DP  RH WIND       PRES   REMARKS
KALISPELL      LGT RAIN  59  54  83 S10       29.85S
MISSOULA       LGT RAIN  56  51  84 CALM      29.90S
BUTTE          LGT RAIN  55  48  77 SE17G29   30.03F
MULLAN PASS    CLOUDY    47  38  71 VRB6      29.97F
DEER LODGE       N/A     55  50  82 W3        29.95F
EUREKA           N/A     55  43  62 S5          N/A
HAMILTON         N/A     57  54  88 SE2       29.91R
LIBBY            N/A     48  45  87 NW3       29.85F
$$

MTZ008-052>055-301300-
SOUTHWEST MONTANA

CITY           SKY/WX    TMP DP  RH WIND       PRES   REMARKS
BOZEMAN        CLOUDY    64  48  56 W13       29.91R HAZE
DILLON         LGT RAIN  58  46  64 SW21G41   30.02R
W YELLOWSTONE  PTCLDY    46  46 100 SW5       30.07R
$$

MTZ009-010-012-014-046-048-049-054-301300-
EAST SLOPES AND CENTRAL MONTANA

CITY           SKY/WX    TMP DP  RH WIND       PRES   REMARKS
CUT BANK       CLOUDY    59  40  49 SW8       29.83R
GREAT FALLS    LGT RAIN  59  52  77 CALM      29.82S
HELENA         CLOUDY    63  52  67 S21G29    29.83F
CONRAD           N/A     61  54  77 SW3       29.87R
$$

MTZ011-013-016-021-045-047-050-051-301300-
NORTH CENTRAL MONTANA

CITY           SKY/WX    TMP DP  RH WIND       PRES   REMARKS
HAVRE          CLOUDY    61  52  72 MISG      29.76S
LEWISTOWN      CLOUDY    63  50  62 S6        29.83F
N BAR RANCH      N/A     64  46  52 NW8       29.86S
CHINOOK          N/A     63  50  63 CALM      29.75S
FORT BENTON      N/A     63  52  67 SW3       29.80S
$$

MTZ017>020-022>027-061-062-301300-
NORTHEAST MONTANA

CITY           SKY/WX    TMP DP  RH WIND       PRES   REMARKS
GLASGOW        MOCLDY    68  47  46 W9        29.68R HAZE
JORDAN           N/A     70  48  45 W12       29.72R
SIDNEY         CLOUDY    64  50  59 CALM      29.65F
WOLF POINT     MOCLDY    66  50  56 CALM      29.64S HAZE
MALTA            N/A     70  52  52 W6        29.74R
PLENTYWOOD       N/A     66  52  59 NW8       29.67S
POPLAR           N/A     66  52  59 NE5       29.64S
$$

MTZ028>42-056>058-301300-
SOUTHCENTRAL AND SOUTHEAST MONTANA

CITY           SKY/WX    TMP DP  RH WIND       PRES   REMARKS
BAKER          MOCLDY    66  46  48 SE9       29.72S
BILLINGS       CLOUDY    78  43  28 N5        29.79S
LIVINGSTON     MOCLDY    72  45  37 SW18      29.87R
MILES CITY     CLOUDY    66  45  46 SW8       29.70R
EKALAKA          N/A     80  36  20 SE8       29.77S
FORSYTH          N/A     70  45  40 W9        29.73R
LAUREL           N/A     74  45  35 SW2       29.79F
$$

REGIONAL REPORTS...DAKOTAS

CITY           SKY/WX    TMP DP  RH WIND       PRES   REMARKS
WILLISTON      MOCLDY    64  54  69 CALM      29.67R
MINOT          MOCLDY    66  57  72 SE3       29.67F
DICKINSON      MOCLDY    63  49  60 S9        29.70F
CROSBY           N/A     63  55  77 SE9       29.66F
BISMARCK       MOCLDY    63  60  90 SE7       29.75S
GRAND FORKS    PTCLDY    65  64  97 S10       29.77S
FARGO          CLEAR     65  61  87 S13       29.83S
RAPID CITY     PTCLDY    62  46  55 SE7       29.84F
$$

REGIONAL REPORTS...WYOMING/IDAHO/WASHINGTON

CITY           SKY/WX    TMP DP  RH WIND       PRES   REMARKS
GILLETTE       CLOUDY    74  33  22 SW18      29.85S
SHERIDAN       CLOUDY    61  45  55 NE5       29.84R
BUFFALO WY     CLOUDY    77  37  23 W10       29.91R
CODY           MOCLDY    70  45  40 S7        29.90S
YELLOWSTONE LA   N/A     45  44  97 VRB3      30.16R
IDAHO FALLS    PTCLDY    57  54  89 SW8       29.98R
SALMON         CLOUDY    63  46  55 SE14G21   29.91S
BOISE          CLEAR     60  44  55 CALM      29.93R
SPOKANE        PTCLDY    54  43  66 S10       29.84S
$$

REGIONAL REPORTS...ALBERTA

CITY           SKY/WX    TMP DP  RH WIND       PRES   REMARKS
EDMONTON       CLEAR     52  45  76 SW6       29.50R
CALGARY        PTCLDY    55  36  47 SW7       29.63F
LETHBRIDGE     CLOUDY    54  39  58 W6        29.74S
MEDICINE HAT   CLEAR     63  45  51 SW14      29.69S
WATERTON GATE    N/A     59  36  41 SW22G33     N/A
CARDSTON         N/A     57  37  47 SW5         N/A
MILK RIVER       N/A     61  39  44 W12         N/A
ONEFOUR          N/A     61  46  59 NW7         N/A
$$

REGIONAL REPORTS...SASKATCHEWAN

CITY           SKY/WX    TMP DP  RH WIND       PRES   REMARKS
SWIFT CURRENT  CLEAR     63  48  59 W12       29.71R
REGINA         CLOUDY    64  50  59 S6        29.62R SMOKE
SASKATOON      PTCLDY    63  57  82 S9        29.61S SMOKE
CYPRESS HILLS    N/A     61  37  41 W5          N/A
VAL MARIE        N/A     59  54  82 NE6         N/A
ROCKGLEN         N/A     59  50  72 S7          N/A
$$


USA.gov is the U.S. government's official web portal to all federal, state and local government web resources and services.